EW2602 Weather Reports


time (UTC)temp
C
wind
direction
speed
KPH
gust
KPH
rain 1hr
cm
rain 24hr
cm
rain mn
cm
humidity
%
barometer
mb
20260504081517 7 355 0.0 0.0 0.00 0.08 0.00 65 1018.4
20260504044554 8 355 0.0 0.0 0.00 0.05 0.05 69 1019.5
20260504043053 8 355 0.0 0.0 0.00 0.05 0.05 70 1019.5
20260504041550 8 355 0.0 0.0 0.00 0.05 0.05 70 1019.6
20260504040052 9 355 0.0 0.0 0.00 0.05 0.05 70 1019.8
20260504034549 8 355 0.0 0.0 0.00 0.05 0.05 70 1020.0
20260504033049 8 355 0.0 0.0 0.00 0.05 0.05 71 1020.0
20260504031549 8 355 0.0 0.0 0.00 0.05 0.05 71 1019.9
20260504030047 8 355 0.0 0.0 0.00 0.05 0.05 71 1019.9
20260504024601 9 355 0.0 0.0 0.00 0.05 0.05 71 1019.9
20260504023048 9 355 0.0 0.0 0.00 0.05 0.05 72 1019.8
20260504021545 10 355 0.0 0.0 0.00 0.05 0.05 70 1019.7
20260504020045 10 355 0.0 0.0 0.00 0.05 0.05 70 1019.5
20260504014545 10 355 0.0 0.0 0.00 0.08 0.05 71 1019.5
20260504013043 11 355 0.0 0.0 0.00 0.08 0.05 68 1019.3
20260504011544 11 355 0.0 0.0 0.00 0.08 0.05 66 1019.3
20260504010042 12 355 0.0 0.0 0.00 0.08 0.05 67 1019.3
20260504004546 13 355 0.0 0.0 0.00 0.08 0.05 63 1019.2
20260504003046 13 355 0.0 0.0 0.00 0.08 0.05 63 1019.0
20260504001544 14 355 0.0 0.0 0.00 0.08 0.05 62 1019.0
20260504000106 14 355 0.0 0.0 0.00 0.08 0.05 62 1019.0
20260503234550 15 355 0.0 0.0 0.00 0.08 0.05 60 1019.1
20260503233039 15 355 0.0 0.0 0.00 0.08 0.05 60 1018.9
20260503231538 15 242 0.0 0.0 0.00 0.08 0.05 61 1019.0
20260503230036 15 242 0.0 1.6 0.00 0.08 0.05 60 1019.1
20260503224535 15 242 0.0 0.0 0.00 0.08 0.05 61 1019.2
20260503223038 15 307 0.0 0.0 0.00 0.08 0.05 66 1019.3
20260503221543 13 334 0.0 0.0 0.00 0.08 0.05 66 1019.4
20260503220032 14 319 0.0 0.0 0.00 0.08 0.05 68 1019.4
20260503214530 13 254 0.0 0.0 0.00 0.08 0.05 69 1019.5
20260503213030 14 258 0.0 0.0 0.00 0.08 0.05 67 1019.6
20260503211529 16 198 0.0 0.0 0.00 0.08 0.05 64 1019.6
20260503210029 17 302 0.0 0.0 0.00 0.08 0.05 52 1019.8
20260503204528 17 186 0.0 0.0 0.00 0.08 0.05 48 1020.1
20260503203039 17 175 0.0 0.0 0.03 0.08 0.05 48 1020.2
20260503201533 17 271 0.0 1.6 0.03 0.08 0.05 56 1020.3
20260503200026 17 235 0.0 1.6 0.03 0.08 0.05 58 1020.5
20260503194526 17 57 0.0 1.6 0.03 0.08 0.05 57 1020.9
20260503193025 17 240 0.0 0.0 0.00 0.05 0.03 57 1021.2
20260503191522 16 252 0.0 1.6 0.00 0.05 0.03 64 1021.2
20260503190019 15 221 0.0 0.0 0.00 0.05 0.03 64 1021.4
20260503184521 15 245 0.0 0.0 0.00 0.08 0.03 67 1021.6
20260503183022 13 221 0.0 0.0 0.00 0.08 0.03 67 1021.9
20260503181518 13 279 0.0 0.0 0.00 0.08 0.03 65 1021.9
20260503180026 13 107 0.0 0.0 0.00 0.08 0.03 67 1022.0
20260503174517 13 240 0.0 0.0 0.00 0.08 0.03 64 1022.2
20260503173035 16 292 0.0 6.4 0.00 0.08 0.03 58 1022.4
20260503171514 16 351 0.0 4.8 0.00 0.08 0.03 52 1022.4